Weather History for KEST - January, 2013

Change the Weather History Date:

Tuesday, January 1, 2013

  Actual Average Record
Temperature  
Mean Temperature 5 °F 16 °F  
Max Temperature 18 °F 24 °F - ()
Min Temperature -8 °F 7 °F - ()
Degree Days  
Heating Degree Days 60 49  
Month to date heating degree days 60 49  
Since 1 July heating degree days 2988 3192  
Cooling Degree Days 0 0  
Month to date cooling degree days 0 0  
Year to date cooling degree days 0 0  
Moisture  
Dew Point 5 °F    
Average Humidity 83    
Maximum Humidity 92    
Minimum Humidity 73    
Precipitation  
Precipitation 0.00 in 0.01 in - ()
Month to date precipitation 0.00 0.01  
Sea Level Pressure  
Sea Level Pressure 30.20 in    
Wind  
Wind Speed 9 mph (SW)    
Max Wind Speed 18 mph    
Max Gust Speed 22 mph    
Visibility 9 miles    
Events      
T = Trace of Precipitation, MM = Missing Value Source: NWS Daily Summary

Daily Weather History Graph

Daily Weather History Graph

Search for Another Location

Airport or City:

Trip Planner

Search our weather history database for the weather conditions in past years. The results will help you decide how hot, cold, wet, or windy it might be!

Date:

Astronomy

Jan. 01, 2013 Rise Set
Actual Time 7:51 AM CST 4:53 PM CST
Civil Twilight 7:19 AM CST 5:26 PM CST
Nautical Twilight 6:43 AM CST 6:02 PM CST
Astronomical Twilight 6:08 AM CST 6:37 PM CST
Moon 9:34 PM CST (1/1) 9:56 AM CST (1/1)
Length of Visible Light 10h 07m
Length of Day
9h 02m
Waning Gibbous, 83% of the Moon is Illuminated
Jan 1
Waning Gibbous
Jan 4
Last Quarter
Jan 11
New
Jan 18
First Quarter
Jan 26
Full

Hourly Weather History & Observations

Time (CST) Temp. Windchill Dew Point Humidity Pressure Visibility Wind Dir Wind Speed Gust Speed Precip Events Conditions
12:52 AM -7.1 °F -18.1 °F -11.0 °F 83% 30.34 in 10.0 mi WNW 4.6 mph - N/A   Clear
1:52 AM -6.0 °F -21.5 °F -11.0 °F 79% 30.33 in 10.0 mi NW 8.1 mph - N/A   Clear
2:52 AM -7.1 °F -21.4 °F -11.9 °F 79% 30.35 in 10.0 mi NW 6.9 mph - N/A   Clear
3:52 AM -7.1 °F -21.4 °F -11.9 °F 79% 30.35 in 10.0 mi WNW 6.9 mph - N/A   Clear
4:52 AM -2.0 °F -10.1 °F -7.1 °F 79% 30.33 in 10.0 mi NW 3.5 mph - N/A   Overcast
5:04 AM -0.4 °F -8.3 °F -5.8 °F 78% 30.23 in 10.0 mi NW 3.5 mph - N/A   Overcast
5:52 AM 1.0 °F -6.7 °F -4.0 °F 79% 30.32 in 10.0 mi West 3.5 mph - N/A   Overcast
6:52 AM 3.0 °F -4.4 °F -2.0 °F 80% 30.32 in 10.0 mi SSW 3.5 mph - N/A   Overcast
7:52 AM 5.0 °F -4.1 °F -0.9 °F 76% 30.31 in 10.0 mi SW 4.6 mph - N/A   Overcast
9:52 AM 8.1 °F -3.2 °F 1.0 °F 73% 30.32 in 10.0 mi SW 6.9 mph - N/A   Overcast
10:52 AM 10.0 °F -2.9 °F 3.0 °F 73% 30.31 in 10.0 mi SW 9.2 mph - N/A   Overcast
11:52 AM 10.9 °F -1.8 °F 5.0 °F 77% 30.30 in 10.0 mi SW 9.2 mph - N/A   Overcast
12:31 PM 12.2 °F -0.2 °F 6.8 °F 79% 30.18 in 10.0 mi SW 9.2 mph - N/A   Overcast
12:52 PM 14.0 °F 2.0 °F 9.0 °F 80% 30.27 in 10.0 mi SW 9.2 mph - N/A   Overcast
1:52 PM 16.0 °F 2.9 °F 10.9 °F 81% 30.26 in 10.0 mi West 11.5 mph - N/A   Overcast
2:52 PM 17.1 °F 6.6 °F 12.0 °F 81% 30.25 in 10.0 mi SW 8.1 mph - N/A   Overcast
3:05 PM 17.6 °F 5.0 °F 12.2 °F 79% 30.14 in 10.0 mi SW 11.5 mph - N/A   Overcast
3:52 PM 17.1 °F 5.8 °F 12.0 °F 81% 30.23 in 10.0 mi SW 9.2 mph - N/A   Overcast
4:17 PM 17.6 °F 6.4 °F 12.2 °F 79% 30.13 in 10.0 mi SW 9.2 mph - N/A   Overcast
4:52 PM 17.1 °F 5.8 °F 12.0 °F 81% 30.21 in 10.0 mi SW 9.2 mph - N/A   Overcast
5:05 PM 17.6 °F 5.0 °F 12.2 °F 79% 30.12 in 10.0 mi SW 11.5 mph - N/A   Overcast
5:52 PM 17.1 °F 3.6 °F 12.0 °F 81% 30.20 in 10.0 mi SW 12.7 mph - N/A   Overcast
6:18 PM 15.8 °F 3.4 °F 10.4 °F 79% 30.10 in 10.0 mi SSW 10.4 mph - N/A   Scattered Clouds
6:52 PM 12.9 °F 0.7 °F 8.1 °F 81% 30.18 in 10.0 mi SSW 9.2 mph - N/A   Clear
7:52 PM 10.9 °F -3.4 °F 7.0 °F 84% 30.17 in 10.0 mi SSW 11.5 mph - N/A   Clear
8:52 PM 10.0 °F -5.2 °F 5.0 °F 80% 30.15 in 10.0 mi SW 12.7 mph - N/A   Clear
9:05 PM 10.4 °F -6.0 °F 6.8 °F 85% 30.06 in 10.0 mi SW 15.0 mph - N/A   Scattered Clouds
9:13 PM 10.4 °F -6.0 °F 6.8 °F 85% 30.06 in 10.0 mi SW 15.0 mph - N/A   Mostly Cloudy
9:52 PM 12.9 °F -2.2 °F 10.0 °F 88% 30.13 in 7.0 mi SW 13.8 mph - N/A   Overcast
10:09 PM 12.2 °F -3.1 °F 10.4 °F 92% 30.04 in 5.0 mi SW 13.8 mph - N/A   Overcast
10:23 PM 14.0 °F -2.0 °F 12.2 °F 93% 30.04 in 2.5 mi SW 16.1 mph - N/A   Overcast
10:37 PM 14.0 °F -2.0 °F 12.2 °F 93% 30.03 in 1.5 mi WSW 16.1 mph - N/A   Overcast
10:52 PM 15.1 °F -0.6 °F 12.9 °F 91% 30.11 in 1.0 mi SW 16.1 mph - N/A   Overcast
11:52 PM 16.0 °F 1.1 °F 14.0 °F 92% 30.09 in 1.2 mi WSW 15.0 mph - N/A   Overcast